Wind_Speed
16 16 17 17 17 17 17 17 16 16 15 15 16 14 13 12 10 10 10 7 4 1 4 9 13 14 15 17 18 19 19 15 9 8 10 11 12 15 16 15 15 14 13 12 9 8 9 9 11 11 11 16 17 13 12 12 11 11 11 15 18 18 15 15 15 13 11 12 15 16 17 17 16 17 19 19 18 19 20 16 10 11 14 13 11 7 6
16 16 16 16 17 17 17 16 16 16 15 15 14 13 13 13 11 10 9 6 4 2 5 7 9 12 14 13 12 15 15 13 11 10 10 11 11 11 12 13 14 15 15 14 11 10 10 8 9 9 8 14 21 23 20 16 12 10 7 9 15 15 12 15 15 12 12 13 12 12 15 15 14 15 20 22 20 21 23 20 14 14 15 16 14 6 6
15 16 16 16 16 17 16 15 15 16 15 14 12 12 14 13 10 10 8 5 4 3 7 8 8 10 12 11 9 10 12 13 13 12 12 14 14 12 12 13 14 15 15 14 12 13 12 9 8 9 9 12 17 22 24 24 21 19 12 8 11 12 12 14 11 6 7 8 7 9 13 14 15 17 20 21 21 22 21 18 17 17 15 17 17 7 7
15 15 16 16 16 16 15 15 15 15 15 14 11 12 13 11 9 10 9 7 6 3 3 7 8 9 10 11 11 10 10 11 13 13 12 13 13 13 13 12 13 14 13 12 12 14 13 10 8 8 9 12 16 18 21 24 24 25 22 16 13 11 11 13 12 8 5 3 2 7 12 10 9 12 16 18 20 22 20 17 17 16 13 15 16 10 10
15 15 16 16 16 16 15 14 14 15 15 13 11 12 12 10 9 10 9 8 9 8 6 4 5 11 12 11 11 11 11 10 10 12 13 12 12 13 13 13 13 13 14 12 12 14 14 13 13 12 12 13 15 15 16 18 19 19 21 21 19 16 14 15 17 14 7 2 1 7 11 10 8 8 10 13 15 17 17 15 13 12 12 11 11 12 12
15 15 15 16 16 16 15 14 14 15 14 12 12 12 11 10 10 10 10 9 10 10 9 8 2 9 13 12 10 10 11 12 11 12 12 12 12 10 10 14 14 13 14 13 12 12 12 14 15 16 16 15 12 12 13 13 13 14 16 19 19 20 20 20 21 19 14 7 4 7 10 10 10 9 9 9 10 12 13 13 11 11 11 8 9 14 16
14 15 15 16 16 16 15 15 15 15 14 13 13 11 9 9 10 10 10 11 13 12 10 8 4 7 13 11 10 10 12 13 11 11 11 10 11 9 8 11 13 13 13 13 14 13 11 14 17 18 20 18 14 12 12 12 13 13 15 17 18 18 20 21 21 20 18 13 8 7 9 10 9 8 7 8 9 9 9 7 6 6 6 5 8 15 17
14 15 15 15 16 16 15 16 16 15 15 15 13 10 9 9 9 10 11 11 13 14 11 8 7 9 12 11 11 12 12 13 11 11 12 11 10 9 8 8 10 11 13 13 14 14 13 14 17 19 21 20 18 16 14 14 17 16 15 17 17 14 14 18 19 17 16 15 13 9 9 10 10 7 4 5 6 6 6 5 4 4 2 1 5 10 14
14 15 15 15 16 16 16 16 16 16 16 15 13 11 10 10 9 9 10 11 11 13 11 7 9 10 10 11 12 12 12 13 13 13 13 13 12 11 10 10 9 7 11 13 12 13 14 14 17 20 21 21 21 20 17 16 18 18 16 17 17 14 13 18 19 15 14 18 19 16 15 13 13 14 11 7 4 2 1 1 2 3 3 3 3 6 10
14 15 16 16 16 16 17 16 16 16 16 15 14 13 11 10 9 8 10 10 11 11 9 7 9 11 11 10 11 11 12 12 12 13 13 14 13 12 12 12 10 6 8 11 11 12 12 12 14 16 18 19 20 18 17 17 18 18 18 16 15 15 15 17 18 14 12 17 19 17 16 14 15 21 23 19 15 11 8 6 4 3 1 3 3 3 5
14 15 16 16 17 17 17 17 17 16 17 16 16 16 13 10 9 9 9 8 9 10 7 7 10 12 11 10 9 7 8 9 9 9 10 12 13 13 12 11 10 8 9 11 11 11 11 11 11 12 12 14 14 13 13 15 16 18 18 16 15 17 15 14 15 13 9 12 15 14 12 9 10 18 25 25 24 21 18 14 12 11 9 7 6 6 4
15 15 16 17 17 18 18 17 18 17 17 18 17 17 15 13 11 10 8 7 7 9 8 7 9 10 10 11 10 7 6 6 6 7 8 9 11 11 10 8 8 9 9 9 10 9 9 9 8 9 8 9 10 10 10 12 12 13 14 13 12 15 14 11 11 10 8 11 13 10 8 9 12 16 19 21 24 26 23 20 18 17 17 16 15 13 10
15 16 17 17 18 18 18 18 18 18 18 19 18 17 17 14 12 10 9 8 7 8 8 8 8 8 8 9 9 8 8 7 6 6 6 5 6 7 8 6 6 7 6 5 7 7 7 6 5 5 4 5 5 7 8 10 10 8 8 8 8 11 12 10 9 8 6 11 14 8 3 8 14 15 14 15 18 21 19 17 17 17 17 17 16 15 14
15 16 17 18 18 18 19 19 19 20 20 19 19 18 17 14 13 12 10 8 8 9 8 7 7 7 7 7 7 7 7 7 6 6 5 3 1 2 3 3 4 6 6 4 5 6 6 7 9 8 6 6 5 6 10 12 13 12 12 10 10 11 10 8 10 12 10 11 13 9 3 5 11 14 14 14 15 16 16 14 15 15 15 15 15 14 14
15 16 17 18 18 19 19 20 20 21 21 20 19 19 17 15 14 13 12 10 8 8 7 6 7 6 6 6 6 5 5 4 4 4 5 4 3 1 1 0 1 4 5 5 5 6 6 7 8 8 8 9 8 6 8 10 12 15 15 14 12 12 12 10 10 13 15 13 11 9 5 4 9 14 15 15 14 15 16 13 12 14 15 14 14 14 14
14 16 17 17 18 19 20 20 21 21 21 21 20 19 17 16 15 13 13 11 7 7 8 8 7 7 6 6 6 5 4 4 3 2 3 4 4 3 1 1 2 2 3 4 4 5 7 7 7 8 7 7 6 4 3 3 4 9 14 16 15 14 14 14 9 8 11 13 13 12 8 4 8 13 15 15 15 15 14 11 11 15 15 14 14 15 15
13 15 16 17 18 19 19 20 21 21 21 21 21 19 18 17 16 16 16 13 8 9 11 10 9 8 7 6 5 5 5 4 4 3 2 4 6 5 4 3 1 1 1 2 2 2 4 5 5 7 6 5 5 4 3 3 2 1 4 7 9 12 14 14 11 8 10 12 12 9 5 5 8 12 14 16 16 15 12 9 11 16 16 14 16 17 17
12 13 14 16 17 18 18 19 20 21 21 21 21 20 19 19 18 18 17 13 10 12 13 11 9 9 7 7 6 5 4 4 4 4 3 4 6 6 5 5 3 1 1 2 3 3 3 3 3 3 3 4 5 3 2 2 2 1 0 0 2 7 11 13 14 13 12 13 12 8 4 6 9 10 13 17 17 15 11 8 10 15 17 17 18 19 19
11 12 13 14 15 16 17 18 19 20 21 21 21 20 20 20 19 19 17 15 13 14 14 12 11 11 10 9 9 7 5 5 4 4 4 4 5 5 6 6 5 3 2 3 3 4 4 3 3 3 1 1 3 2 1 2 2 1 1 1 0 2 5 9 12 12 11 12 12 9 6 8 9 8 12 16 14 10 9 10 11 14 17 19 20 20 20
10 11 12 13 14 15 16 17 18 19 19 20 20 19 20 20 19 19 18 17 15 15 14 13 13 13 12 11 10 8 6 5 4 3 3 4 4 5 6 6 6 4 4 4 4 5 5 4 2 3 2 1 3 3 2 2 3 2 3 2 1 1 2 5 7 9 10 11 10 7 6 10 11 8 10 15 14 9 9 11 12 14 17 19 21 21 22
8 10 11 12 13 14 15 16 16 17 18 18 18 19 19 19 19 18 18 18 16 15 14 14 14 14 13 12 11 9 8 6 5 3 3 4 5 5 4 4 6 5 5 6 6 4 5 4 3 3 3 2 2 3 3 3 2 3 4 3 2 2 3 3 3 6 8 7 7 6 5 8 10 9 11 17 19 16 12 10 12 15 18 20 21 22 22
7 8 9 11 12 13 14 14 15 16 16 17 17 18 18 18 18 18 17 17 16 15 15 15 15 15 14 13 12 12 10 8 7 5 4 4 4 5 4 3 4 4 4 5 5 4 4 4 3 3 3 2 2 3 4 3 2 1 4 4 3 3 4 4 3 6 7 5 5 7 7 8 11 13 13 17 20 19 15 12 13 16 19 20 21 22 22
6 7 8 9 10 11 12 13 14 15 15 16 16 16 17 17 17 17 17 16 16 16 16 16 16 16 15 14 14 14 12 10 9 7 6 5 4 4 4 2 2 2 2 3 4 4 4 4 4 4 3 3 4 3 2 2 2 2 2 3 4 4 4 3 2 4 5 5 5 7 7 8 11 13 13 15 18 18 16 13 13 15 17 19 20 21 22
4 6 7 9 9 10 11 12 12 13 14 14 15 15 15 16 16 17 16 16 16 15 15 15 15 14 14 15 14 14 13 12 10 8 8 7 5 4 3 2 1 0 1 2 2 3 4 3 3 3 3 4 4 3 2 3 3 3 2 1 1 3 3 2 1 2 2 3 4 5 5 7 9 10 11 12 12 13 13 12 12 13 16 18 19 19 20
5 6 7 8 9 10 11 12 12 12 12 13 13 14 14 15 15 15 15 14 14 13 12 12 11 12 13 14 14 13 13 13 12 10 10 8 7 5 4 3 2 1 3 3 2 3 4 3 3 1 2 4 4 2 3 4 3 4 4 2 2 2 2 2 3 3 2 3 5 5 6 6 7 7 8 8 9 9 10 10 10 11 12 14 15 15 16
6 7 8 9 10 11 11 12 12 12 12 12 12 13 13 13 14 14 14 13 12 12 11 10 10 11 12 13 12 12 12 13 12 12 11 10 9 7 6 6 5 3 0 3 4 4 4 4 3 2 3 4 4 4 4 4 4 4 4 4 5 3 2 3 4 3 3 4 5 6 5 5 6 6 6 7 7 7 8 7 8 9 10 11 12 13 14
7 9 10 10 11 11 12 12 12 12 12 12 12 12 12 12 12 12 12 12 11 10 9 9 9 10 11 11 11 11 11 12 12 12 11 11 10 10 9 9 8 6 3 1 2 3 2 2 3 4 5 5 5 5 5 5 5 3 2 5 6 3 2 3 4 4 4 5 6 6 5 4 6 7 7 7 8 7 8 8 9 10 11 12 13 13 14
10 11 12 12 12 13 13 13 13 12 12 12 12 12 11 11 11 11 11 11 9 8 7 7 7 8 8 9 9 10 10 10 11 11 11 11 11 12 11 10 10 8 6 4 2 3 3 3 4 4 5 5 3 3 4 4 3 3 3 5 6 5 5 5 4 4 6 6 7 8 6 5 7 8 8 9 9 9 9 10 10 11 11 12 13 13 14
12 12 13 14 14 14 14 14 14 13 13 12 12 12 12 11 10 10 9 9 9 8 7 6 6 6 6 6 7 8 8 9 9 10 10 10 11 12 11 11 10 9 8 8 6 4 2 3 4 4 5 6 4 2 2 3 3 3 5 7 7 6 7 7 6 6 7 7 9 10 8 7 8 10 10 10 10 10 11 11 11 12 12 13 13 14 15
13 14 14 15 16 16 16 16 15 15 14 14 13 12 12 11 10 9 8 8 8 8 7 5 3 3 4 5 6 7 7 8 8 8 9 9 9 10 10 10 9 9 9 9 7 4 3 1 1 2 4 5 4 2 2 3 3 3 4 6 7 6 6 7 7 7 7 8 10 10 9 9 10 11 11 11 11 11 11 11 12 12 13 13 14 15 15
14 15 16 17 17 17 17 17 16 16 15 14 13 12 11 11 10 9 8 7 7 7 6 4 2 2 3 4 4 5 6 6 7 7 7 8 7 7 8 8 8 8 7 7 6 6 5 3 2 1 0 1 3 3 1 2 3 3 4 4 4 5 6 7 7 7 8 8 8 9 9 10 10 10 10 11 11 11 12 12 13 13 14 14 14 14 14
15 16 16 16 17 17 17 17 16 15 14 14 13 12 11 11 10 8 7 6 6 6 5 3 2 1 1 2 3 3 4 5 6 6 7 7 6 6 6 6 7 7 5 5 6 6 5 4 3 3 2 2 4 3 1 1 3 4 5 5 4 5 7 7 7 7 7 7 7 7 8 9 10 10 10 10 11 12 13 13 13 13 13 13 13 13 13
15 15 16 16 16 17 17 16 15 13 13 13 12 11 10 9 8 7 6 6 5 5 3 2 0 0 0 1 2 3 4 5 6 6 6 6 6 6 6 5 5 6 5 3 4 5 5 5 4 3 3 3 3 3 1 2 3 5 5 5 6 8 9 9 8 8 8 8 8 7 7 9 10 10 10 11 12 12 12 12 12 12 12 12 12 13 13
15 16 16 16 15 15 15 14 13 12 11 10 10 10 9 8 7 6 5 5 4 4 2 0 2 1 1 1 1 2 3 5 6 6 5 6 6 6 6 5 5 5 4 3 3 4 4 4 2 2 3 3 2 1 1 2 3 5 5 6 7 9 10 10 10 10 9 9 8 8 9 10 11 11 12 12 12 12 11 11 11 11 11 11 12 13 14
16 15 14 13 12 11 11 10 9 9 8 8 8 8 7 6 6 5 4 4 3 2 1 1 3 3 3 3 2 1 3 5 6 6 5 6 7 6 6 5 5 4 3 3 4 3 4 4 3 2 4 5 3 0 1 2 3 4 5 6 7 8 10 11 10 10 9 9 9 9 10 11 11 12 13 13 12 12 11 11 11 11 11 12 13 13 13
14 12 11 9 8 8 7 7 7 7 6 6 6 6 6 5 5 4 4 3 2 1 1 2 4 5 5 4 2 1 2 5 6 6 7 7 7 7 7 5 3 5 6 5 3 3 5 6 4 3 6 6 3 3 5 5 4 4 5 5 6 8 9 9 9 9 10 10 10 10 10 10 11 12 12 12 12 11 11 11 11 11 11 12 12 11 11
11 9 8 7 6 6 5 5 5 5 5 5 5 5 4 4 3 3 2 1 1 1 3 4 4 5 5 4 2 1 1 2 4 5 6 7 7 8 8 6 4 6 6 4 4 5 6 6 5 5 7 6 5 8 10 9 7 7 7 7 8 10 9 9 9 10 11 11 11 11 10 10 11 12 11 11 11 11 11 10 10 10 10 10 9 9 9
8 7 6 5 5 4 4 4 4 4 3 3 3 3 3 2 2 1 1 1 2 2 3 4 4 4 5 3 0 1 1 2 3 4 5 6 7 8 8 7 7 7 6 4 6 7 6 7 6 5 5 7 8 10 11 10 9 10 9 10 11 11 10 10 10 11 12 11 11 11 11 11 12 13 11 10 10 10 9 9 9 8 8 7 7 7 7
6 5 5 4 4 4 3 3 3 3 3 2 2 2 1 1 2 2 2 2 3 3 3 3 3 5 5 2 1 3 3 4 4 4 6 7 6 6 7 8 8 8 6 4 6 7 6 6 7 7 5 5 7 9 10 9 9 10 11 12 12 12 11 12 12 12 12 12 12 12 12 12 13 12 10 9 8 8 8 7 7 6 4 4 5 5 5
4 4 3 3 4 4 3 3 3 3 2 2 2 2 2 3 3 3 4 4 4 4 3 2 3 4 4 3 2 4 6 6 5 5 6 7 7 7 8 8 9 8 6 3 5 9 8 6 7 6 5 4 7 10 10 10 10 10 10 12 13 13 12 13 13 13 12 12 12 13 13 13 13 11 9 8 8 7 6 5 4 2 2 2 4 5 6
2 3 3 3 4 3 3 3 3 3 3 3 3 3 3 4 4 5 5 4 3 3 2 2 2 2 3 3 4 5 6 7 8 8 7 6 8 9 8 8 10 8 4 4 8 12 10 7 7 6 6 7 9 10 9 9 10 10 10 10 10 11 12 12 13 13 13 13 13 13 14 14 13 10 8 7 7 6 4 3 1 0 1 2 3 5 6
2 2 3 3 3 3 3 3 3 3 4 4 4 4 4 5 5 4 4 3 3 3 1 1 2 2 4 5 5 6 7 9 10 8 6 6 9 9 9 10 10 6 4 7 11 11 8 7 7 6 5 7 8 7 6 8 9 9 9 9 9 9 11 12 13 13 13 13 13 14 14 14 11 9 7 7 6 5 4 3 2 1 1 1 3 5 6
1 2 2 3 3 3 3 3 3 3 3 3 3 4 4 4 4 4 3 2 2 1 1 2 3 4 6 6 7 8 10 10 9 7 5 7 10 10 10 10 8 6 8 11 11 8 7 7 7 5 5 6 8 7 6 7 9 9 9 9 9 10 12 13 14 14 13 13 13 14 13 11 9 8 7 6 6 6 6 5 3 1 1 0 2 5 6
2 2 2 2 2 2 2 2 2 2 3 3 3 3 3 3 3 3 1 0 0 1 3 4 5 6 7 8 9 9 9 9 9 7 7 8 9 9 7 6 7 9 11 10 7 6 8 8 7 6 7 7 7 7 6 6 9 11 11 10 10 11 12 13 14 14 14 13 13 12 11 9 7 8 7 6 6 7 8 6 4 3 2 1 3 6 7
2 1 1 1 2 2 2 2 2 3 3 3 3 3 3 3 2 2 1 0 1 3 5 7 8 8 8 9 9 8 8 8 8 7 7 7 7 6 6 7 9 10 9 6 5 7 7 6 5 5 5 4 4 5 6 5 6 10 12 13 12 12 13 14 14 14 13 13 12 11 10 8 6 7 7 6 6 7 8 8 6 5 4 3 4 6 7
3 2 1 1 1 1 2 2 2 2 2 2 3 3 2 1 1 1 0 1 3 5 7 9 10 10 9 8 8 8 9 8 7 7 8 8 7 7 9 11 10 7 5 5 7 7 6 6 5 5 4 4 5 6 6 5 4 6 9 12 12 12 13 14 14 14 13 13 12 11 10 9 7 6 7 7 6 7 9 9 8 6 5 5 5 6 6
4 3 2 2 1 1 2 2 2 1 1 1 2 2 2 2 3 3 4 5 6 8 9 10 11 10 10 9 8 7 8 8 8 9 10 8 6 8 10 10 7 5 5 6 8 7 6 5 5 4 4 6 6 6 6 6 5 5 7 9 11 12 12 13 14 14 14 12 12 12 11 10 9 8 8 8 8 8 8 10 10 9 7 6 5 5 5
6 5 4 4 3 3 2 2 2 1 1 1 1 2 3 4 5 6 6 7 9 10 11 11 11 10 9 10 8 7 7 9 10 10 9 8 6 6 7 6 6 6 7 7 7 6 5 5 7 8 9 9 7 6 6 6 6 6 7 8 9 11 13 14 15 15 14 13 13 12 12 12 12 12 11 10 10 9 9 10 11 10 9 8 6 5 4
6 6 6 5 5 5 4 4 3 2 2 3 3 4 5 6 7 8 9 9 11 12 13 13 13 11 8 9 9 8 8 8 8 7 7 8 7 6 6 6 7 8 7 7 7 7 6 7 11 13 12 11 9 8 8 7 7 8 9 9 10 11 13 15 15 16 16 15 14 14 14 14 14 15 13 12 12 11 10 10 11 12 12 10 8 6 4
7 7 7 6 6 7 6 5 4 4 5 5 6 6 7 8 10 11 12 12 13 14 14 13 12 10 8 9 10 9 8 7 7 7 8 8 8 7 8 9 9 8 7 6 7 8 9 10 11 12 12 12 11 10 9 8 8 9 10 11 13 14 15 16 16 17 17 17 16 16 15 15 16 16 14 12 12 12 12 11 11 12 13 12 11 9 6
9 8 7 7 8 9 9 8 6 6 6 7 8 9 9 10 12 14 14 14 15 14 12 9 8 8 8 10 10 9 9 10 10 10 10 10 9 9 11 11 10 8 8 9 10 12 13 13 13 13 15 15 14 13 12 12 12 11 11 12 13 15 16 17 18 18 18 18 18 18 17 16 16 16 15 13 12 12 13 12 12 12 13 13 13 12 10
10 9 9 8 9 10 11 11 10 10 10 11 12 12 11 12 13 14 13 13 12 11 9 8 9 10 10 11 11 11 11 11 11 12 12 11 10 11 12 12 11 11 12 14 14 14 14 15 16 18 20 20 19 18 17 17 16 15 13 13 14 16 17 18 18 18 18 19 19 19 18 17 17 17 17 15 13 12 13 13 13 13 13 14 14 14 13
Wind_Direction
338 338 340 342 343 344 344 344 348 348 346 345 343 343 348 351 348 342 335 328 318 269 224 235 226 215 221 227 227 230 232 232 232 232 229 226 229 235 238 241 244 246 248 247 246 241 236 230 224 219 214 214 214 205 194 187 181 184 196 208 211 210 211 217 222 221 224 236 241 244 245 237 230 228 224 224 227 225 231 242 233 217 223 225 232 238 194
342 342 343 345 346 348 348 350 354 354 353 352 350 354 0 0 357 351 345 339 331 274 228 232 222 220 225 227 230 229 226 226 223 224 226 222 227 232 232 236 237 237 243 243 239 237 234 233 227 213 206 217 220 218 216 211 202 190 181 194 202 205 211 217 219 214 212 222 230 232 235 228 218 221 224 225 227 226 229 236 240 240 234 227 234 239 176
347 346 346 347 351 353 353 355 358 358 359 357 358 9 9 4 3 356 352 354 342 261 232 238 235 232 229 220 218 218 219 223 218 216 225 227 229 232 230 235 235 233 238 239 235 232 225 227 230 213 209 221 220 218 221 222 220 219 216 196 189 197 208 216 225 233 216 216 223 211 206 205 208 217 221 221 222 222 223 226 230 235 231 227 236 234 162
353 352 350 350 354 356 357 1 360 1 4 1 5 19 15 11 15 6 359 2 2 353 260 252 237 227 225 217 215 209 208 218 217 216 224 226 227 229 228 230 231 229 231 233 235 233 223 221 220 200 198 213 214 214 218 220 221 225 225 216 205 209 217 218 234 269 299 335 313 192 181 176 184 204 212 214 216 218 219 224 232 234 228 225 230 220 177
359 357 353 353 356 358 2 3 1 4 8 5 13 25 18 15 23 17 15 15 11 12 3 332 233 213 208 206 209 205 201 207 209 211 217 219 221 226 227 225 223 224 224 223 230 232 224 219 211 198 198 211 215 211 213 218 220 222 221 218 218 224 226 222 228 247 272 319 135 166 162 150 141 161 185 197 207 211 212 224 237 236 234 230 214 209 200
3 1 359 357 358 1 3 4 6 9 9 9 21 27 18 18 25 23 25 27 19 13 10 7 324 203 193 193 199 193 196 205 202 200 206 212 215 218 223 223 223 224 220 217 223 225 220 214 207 200 198 197 193 192 198 205 207 208 211 211 215 221 220 220 225 232 238 237 211 173 162 144 127 134 151 164 184 196 202 219 230 223 232 238 201 203 213
5 5 5 4 3 3 4 7 10 13 14 19 26 22 14 22 30 29 32 34 28 26 30 34 46 163 165 173 187 183 190 200 195 190 189 190 199 204 208 214 219 223 218 213 216 214 206 203 200 195 191 183 170 172 183 188 188 191 197 200 207 213 213 218 224 223 222 225 223 199 179 162 141 129 125 133 148 160 168 186 202 198 216 236 202 202 210
8 11 12 10 8 8 9 11 14 16 20 25 26 20 17 27 32 35 38 40 38 37 44 62 90 131 143 153 164 167 180 186 175 174 174 163 171 182 178 181 193 207 208 208 214 212 205 200 194 189 188 184 179 176 176 183 188 187 191 197 201 207 211 217 218 207 199 207 212 205 194 185 178 173 154 132 128 122 123 123 116 121 121 142 189 200 203
13 16 17 16 15 15 16 17 19 22 27 30 30 27 29 32 32 38 44 46 50 46 42 63 98 114 121 132 140 144 159 167 153 147 154 151 149 154 152 145 140 168 196 199 202 204 203 199 191 188 188 188 190 191 187 190 192 190 198 205 203 209 217 214 210 205 204 214 222 224 225 226 223 222 217 199 183 185 178 121 94 91 68 72 138 198 206
20 21 22 21 22 23 23 24 24 28 33 35 36 35 36 37 35 41 49 51 56 55 46 57 84 91 93 104 121 131 140 147 141 137 141 144 143 142 140 133 124 136 173 176 178 181 183 184 181 184 189 189 191 196 196 197 195 193 201 207 203 210 220 210 204 209 215 220 225 226 229 238 239 233 229 221 219 228 237 245 255 259 250 111 139 204 223
27 27 26 26 27 28 29 29 29 33 36 38 40 40 40 44 43 44 49 49 54 62 63 71 78 76 73 76 87 110 124 130 136 138 138 139 141 141 138 135 137 146 152 151 155 162 167 173 174 175 184 186 186 188 188 191 196 197 200 204 205 211 216 207 205 212 209 209 214 212 215 228 234 234 233 229 225 227 231 238 249 257 253 232 225 238 234
33 32 31 31 32 32 32 33 33 35 38 39 41 42 43 45 45 48 54 50 54 65 67 72 79 75 67 62 58 65 85 106 125 137 146 151 148 140 136 143 151 155 155 150 148 151 156 162 164 163 173 182 185 190 186 181 187 190 190 193 200 206 206 197 202 214 196 182 191 199 212 220 224 231 234 230 228 228 231 236 242 248 251 247 246 247 237
38 37 35 34 35 35 35 36 37 37 38 39 41 42 44 45 46 52 59 54 56 67 63 58 64 65 57 51 46 50 60 68 88 113 138 167 171 150 138 140 153 164 176 170 161 169 178 183 190 188 191 195 194 205 208 196 190 194 202 202 191 191 198 196 194 196 177 179 192 202 224 219 223 231 231 226 224 221 222 229 230 231 236 237 237 239 235
42 41 39 37 37 38 37 38 39 39 39 39 40 42 43 46 50 57 62 59 57 63 61 53 51 48 45 41 37 41 45 42 49 63 67 57 268 198 154 131 152 173 186 182 168 181 201 218 231 237 240 240 238 244 244 235 228 233 244 244 216 191 190 199 200 200 203 207 207 213 242 229 222 224 219 214 211 204 200 208 213 213 217 220 222 225 224
45 44 43 40 39 39 39 40 40 40 40 39 40 41 43 47 53 59 62 60 53 55 60 59 53 47 40 37 37 38 34 25 28 29 21 20 10 317 273 286 221 198 198 197 184 186 194 205 214 215 216 220 221 228 242 247 242 233 231 233 226 206 195 202 211 212 216 220 217 218 232 221 207 213 215 212 210 204 199 201 207 211 212 211 214 217 217
48 46 44 42 41 40 40 40 40 41 40 40 40 42 43 46 52 58 62 58 50 55 60 58 57 54 46 39 39 39 34 30 43 39 348 342 359 12 10 287 253 238 214 206 206 207 206 205 212 215 212 206 196 179 182 207 232 232 229 231 234 228 218 215 215 212 215 224 231 232 228 196 192 206 210 211 210 204 199 199 210 216 214 210 209 210 212
49 46 43 42 42 41 40 40 41 41 41 40 41 41 41 43 47 53 58 56 54 63 62 53 50 52 46 39 39 40 42 45 58 71 27 352 5 10 10 9 312 269 214 174 170 191 198 200 217 225 223 203 187 181 187 176 150 203 240 238 233 228 225 221 218 215 217 225 237 243 236 220 218 212 208 209 204 194 190 198 211 214 213 211 208 206 208
46 45 42 40 39 40 40 40 40 41 41 41 41 40 39 39 42 48 54 54 55 65 66 58 52 52 50 47 47 48 53 59 57 54 40 19 17 16 18 27 36 28 93 140 128 126 147 162 182 208 236 219 194 188 205 178 126 92 151 122 216 219 220 221 224 226 222 221 231 242 242 239 239 227 214 207 194 186 192 198 201 208 210 211 210 208 209
42 41 40 39 37 36 37 37 38 38 39 39 39 39 38 38 39 44 50 52 53 61 66 63 59 57 56 53 53 55 59 64 65 57 46 26 17 28 41 43 46 63 92 121 131 125 112 114 145 138 79 215 173 147 165 170 141 98 160 151 144 219 217 219 222 227 224 219 224 235 236 233 239 238 220 204 187 185 207 206 202 206 209 211 214 213 211
40 39 38 37 36 34 34 34 35 35 36 37 37 38 38 37 37 40 44 46 49 55 59 61 60 58 57 55 55 58 57 57 61 62 54 37 24 37 50 43 42 67 98 101 116 131 111 86 108 132 108 121 152 136 116 148 170 167 141 145 165 175 204 211 209 217 223 220 219 229 242 235 233 230 215 203 195 201 219 218 215 210 206 210 215 214 213
39 39 36 35 34 32 32 32 31 32 33 33 33 35 36 36 36 37 40 42 44 47 51 53 53 54 55 55 54 54 55 57 60 62 58 45 39 50 68 55 45 61 96 96 92 115 124 105 93 116 126 121 133 149 139 124 149 184 167 158 175 196 207 218 211 211 220 224 217 213 220 222 215 210 208 207 208 213 219 219 217 210 205 209 213 214 216
38 36 34 33 31 29 28 28 27 28 29 28 29 31 32 32 33 34 37 40 41 42 44 45 46 47 49 51 53 53 53 54 55 58 62 61 53 53 62 68 57 58 88 97 88 92 110 110 102 107 123 133 123 148 169 158 133 174 174 175 194 208 208 217 219 206 210 224 226 218 221 218 210 210 214 211 211 216 218 213 210 208 208 211 213 216 220
33 29 26 25 26 25 25 25 24 23 23 23 24 25 26 28 29 30 32 35 36 36 37 38 39 39 40 43 47 49 49 49 49 52 57 65 66 48 39 58 73 66 88 111 124 133 129 131 138 129 129 153 149 146 174 181 149 135 163 198 215 215 213 226 229 201 205 221 226 222 225 220 211 211 213 211 212 218 221 219 216 214 214 216 218 221 223
18 16 13 12 13 15 17 19 21 20 18 18 18 19 20 22 24 25 27 29 30 31 31 33 35 34 34 38 41 42 44 45 45 47 50 54 55 39 23 23 32 100 176 160 156 162 159 157 158 154 155 156 151 162 187 181 165 154 139 144 222 209 204 210 189 169 181 211 212 200 193 195 199 205 208 210 214 219 221 222 221 218 218 220 222 224 227
352 353 356 358 359 1 4 7 11 13 13 13 12 11 14 16 17 19 22 25 29 31 30 29 30 29 32 36 36 37 39 39 40 45 47 47 48 42 36 28 13 298 221 215 196 174 172 162 131 115 189 177 158 161 182 185 186 168 150 149 199 179 146 132 134 132 142 173 182 170 160 168 178 187 196 202 207 211 214 218 221 222 225 229 232 236 241
329 333 337 341 344 347 351 353 357 1 3 4 3 4 7 9 10 12 16 19 24 28 28 24 23 25 31 34 32 32 34 34 36 41 43 43 45 46 46 43 33 23 289 231 218 200 192 182 157 143 199 200 183 173 180 186 180 161 161 194 194 166 142 157 157 151 161 173 168 152 143 162 180 183 191 200 205 210 216 224 231 238 244 249 252 256 259
312 318 323 327 331 334 337 340 344 348 351 353 353 355 358 359 1 4 8 11 17 23 22 16 16 21 27 30 31 31 32 32 33 36 39 40 43 44 47 47 42 39 48 52 219 198 169 174 191 197 206 207 198 193 194 188 172 156 186 205 191 170 179 188 178 181 193 192 180 167 158 187 205 204 209 218 224 232 239 244 252 256 258 261 263 265 267
306 311 314 318 321 323 325 328 331 334 338 340 340 341 345 349 353 355 357 2 10 18 17 9 10 17 19 22 28 34 34 32 31 32 33 36 40 42 45 49 48 48 55 66 95 129 133 169 207 210 205 199 192 202 214 204 179 174 204 206 199 198 200 196 194 206 207 205 203 198 193 208 220 225 235 241 245 253 258 260 263 264 264 265 266 267 269
302 306 309 311 313 315 316 318 319 321 323 324 326 329 331 336 341 344 346 350 357 5 12 12 12 13 10 11 21 32 36 34 33 33 32 32 36 38 40 45 52 55 60 67 79 93 121 189 206 206 206 200 180 170 208 213 195 200 219 227 228 224 217 215 216 211 208 212 216 214 215 225 235 243 251 255 259 265 265 266 268 268 268 270 270 271 273
301 305 307 308 308 309 309 309 309 309 309 310 313 316 319 324 330 332 334 340 345 353 7 15 9 359 0 5 14 23 29 29 29 32 34 34 34 32 33 38 45 51 56 59 63 70 67 50 236 224 222 210 184 160 193 208 197 204 222 232 234 232 227 225 218 208 205 210 215 220 229 239 246 253 258 260 264 267 266 267 269 270 273 276 277 279 280
303 304 305 305 305 305 304 304 303 302 301 301 303 305 307 311 317 321 324 331 334 341 357 10 357 343 354 3 11 20 23 21 21 24 28 31 33 32 30 30 32 41 53 51 42 47 55 48 40 42 329 181 150 137 168 202 194 193 194 196 207 217 217 215 213 212 213 218 225 236 246 251 254 257 260 261 261 262 265 268 271 275 279 282 283 283 282
303 304 304 304 304 304 302 302 301 299 297 296 296 296 298 302 308 312 315 319 324 331 345 355 345 331 359 10 17 28 28 22 19 20 19 20 25 27 25 25 26 29 37 40 35 34 36 44 64 64 39 73 116 115 117 192 182 181 180 177 190 211 216 217 220 224 229 237 246 253 255 256 257 258 260 263 262 263 268 272 277 281 284 285 285 285 285
304 305 306 305 304 302 300 299 299 296 293 292 292 293 295 297 301 305 305 310 318 321 324 342 34 169 189 36 34 37 40 36 28 21 15 13 15 17 17 18 17 15 18 28 29 17 14 31 53 43 9 36 92 109 138 197 193 196 196 195 202 214 222 230 237 243 247 249 251 254 256 257 259 261 263 264 265 267 272 278 284 288 288 286 288 289 289
306 308 308 307 305 301 298 298 298 294 291 290 289 290 292 293 295 298 299 304 311 309 304 44 110 127 138 116 81 38 46 53 43 26 14 12 14 15 16 13 7 5 7 1 353 353 358 10 18 341 334 356 42 129 179 213 223 221 216 215 218 221 229 239 246 249 251 251 252 257 262 265 268 268 266 266 268 272 279 288 293 292 291 291 292 293 292
310 312 311 310 310 307 302 301 300 295 292 292 291 290 292 293 294 295 296 301 304 289 276 115 121 124 113 111 120 96 60 57 49 38 32 30 26 23 24 21 4 349 345 344 341 330 311 314 334 312 283 293 307 257 211 232 241 235 232 235 233 227 231 240 247 250 253 257 262 268 273 276 276 275 272 272 273 277 287 295 296 292 292 294 295 295 294
316 317 317 317 319 315 310 309 305 301 301 299 293 293 296 298 299 300 299 302 293 223 196 123 122 132 133 137 167 170 68 46 35 29 30 32 29 24 29 35 4 333 341 346 331 296 284 298 313 284 272 284 288 233 232 232 222 221 228 230 226 221 223 234 246 255 261 267 273 279 285 287 287 285 281 278 278 284 291 294 291 291 294 296 297 298 301
323 324 325 327 327 323 319 319 313 308 305 299 294 298 305 305 310 313 297 276 229 197 166 136 136 156 158 153 167 170 79 25 7 7 12 14 12 9 17 27 6 349 353 343 307 293 292 299 299 276 270 275 254 240 246 245 236 232 230 226 227 230 234 243 255 263 269 273 277 282 289 296 298 296 290 283 282 286 287 285 286 292 297 300 304 309 313
329 332 334 334 336 335 333 331 322 314 312 310 308 316 322 322 333 333 268 198 168 165 152 139 153 176 166 142 135 240 255 339 347 348 346 348 352 355 360 1 356 357 358 327 310 320 322 317 317 302 276 267 261 259 259 256 250 246 239 231 233 239 246 256 263 268 273 278 282 286 293 302 306 302 292 283 281 280 277 279 287 296 302 309 318 324 324
333 336 341 345 350 351 349 346 342 339 342 347 348 354 9 38 78 101 123 137 145 153 149 147 176 188 184 184 289 273 283 318 338 334 327 331 337 343 346 343 341 349 356 335 328 346 347 318 313 323 315 283 273 273 267 257 252 248 240 236 238 243 250 259 265 267 271 277 283 287 293 302 308 304 293 281 273 268 270 281 293 302 313 328 340 346 346
335 341 348 358 3 3 2 6 10 10 18 31 41 62 81 89 112 128 126 124 137 151 157 162 184 204 217 232 265 288 300 309 311 309 312 315 317 325 335 335 333 340 349 324 319 340 342 313 297 315 318 272 267 277 275 261 252 247 242 240 242 245 251 259 262 263 266 273 280 287 293 300 305 302 287 270 261 259 266 280 293 309 343 13 18 12 3
352 358 1 8 15 15 15 21 28 35 51 65 75 91 99 103 117 125 121 124 145 165 171 164 173 230 265 268 279 295 303 306 308 309 305 302 308 318 327 329 329 333 330 298 315 332 334 312 295 304 296 274 279 290 284 266 257 251 245 241 240 242 248 253 254 256 264 274 284 290 294 299 302 295 273 255 251 251 253 255 249 58 68 65 42 14 357
13 17 12 16 23 24 24 34 50 66 77 81 88 99 103 108 117 120 119 136 163 168 174 204 233 274 291 292 294 302 307 311 315 315 304 298 308 316 317 321 326 325 296 299 316 324 318 301 304 313 302 290 299 306 289 268 262 255 247 244 244 242 244 247 250 257 269 281 289 293 296 297 296 285 261 245 240 236 225 205 173 135 117 89 35 3 346
71 44 21 19 28 38 47 53 61 74 86 94 105 113 114 114 118 118 117 138 157 164 229 273 287 300 305 301 301 306 309 311 312 310 299 298 307 312 315 317 318 304 299 308 314 309 294 293 300 305 299 300 308 309 287 262 255 250 246 245 244 241 242 246 253 264 276 285 291 298 301 299 286 269 254 240 231 224 213 202 195 202 196 125 2 349 337
104 65 40 39 43 49 60 64 68 85 97 104 115 124 124 119 115 113 116 129 83 336 312 311 318 317 309 306 311 314 313 311 310 305 299 300 305 307 308 305 296 295 304 308 298 282 293 301 298 295 302 308 310 311 298 265 248 245 244 242 241 243 247 253 260 269 278 285 292 301 309 306 281 258 247 239 230 221 214 207 210 226 240 266 319 334 334
132 97 76 65 61 73 91 93 94 100 103 106 114 123 123 124 130 138 164 294 355 348 332 327 327 322 312 309 314 314 307 307 309 301 294 299 302 294 285 289 294 297 301 293 272 280 301 316 313 306 310 313 312 317 318 300 264 250 245 243 243 247 252 258 265 271 278 284 289 298 309 312 291 261 249 243 233 223 217 215 217 225 239 261 293 316 328
178 167 163 131 108 109 123 127 121 110 103 105 122 134 140 159 178 186 255 328 335 335 328 324 323 321 312 306 308 306 302 303 302 291 289 297 294 279 284 296 300 291 275 268 272 278 290 302 303 297 293 301 315 321 319 314 297 269 254 247 244 247 253 258 264 270 278 283 287 291 299 308 305 285 265 254 244 231 224 221 221 223 229 247 278 303 321
201 201 198 194 189 160 144 152 155 145 133 131 151 186 239 273 279 286 296 305 313 318 319 318 318 315 307 302 303 302 298 300 298 291 291 293 283 276 287 296 289 261 255 269 276 280 289 298 301 295 293 301 310 313 304 296 290 280 265 251 243 244 251 257 262 268 277 284 286 285 289 298 306 304 289 271 257 246 234 228 227 226 226 236 260 288 313
212 213 217 222 224 219 208 202 198 197 199 204 222 255 278 288 293 300 307 311 312 315 319 322 322 318 309 304 304 297 291 297 302 297 292 288 277 272 278 279 265 260 267 273 277 284 291 288 291 299 304 301 294 291 293 290 281 270 265 258 250 248 250 255 261 268 277 284 285 282 281 287 298 303 297 282 267 254 242 233 230 227 225 227 240 263 292
222 223 228 235 238 240 242 242 236 233 244 256 266 279 287 291 294 303 312 314 311 311 314 316 316 314 305 299 303 303 298 298 300 295 287 282 272 261 260 264 268 274 278 276 275 278 281 282 289 295 297 294 288 285 289 293 288 275 263 256 253 251 250 252 258 267 275 281 282 278 276 282 291 296 293 283 270 259 249 239 234 231 227 225 226 235 255
231 232 237 243 247 253 259 259 250 249 259 268 273 280 286 288 291 300 308 310 308 309 311 311 310 309 302 300 304 305 297 288 284 280 276 273 264 255 260 268 273 278 283 282 275 273 278 285 289 288 285 286 290 289 285 286 290 286 272 259 253 252 253 255 259 265 271 275 275 274 274 280 287 291 290 284 272 262 254 245 238 234 232 228 224 222 227
241 240 242 248 254 259 262 260 252 244 249 260 271 280 285 283 286 294 304 307 305 306 308 304 299 298 299 300 301 299 295 291 285 276 271 270 264 258 262 270 276 281 282 280 277 277 279 282 282 278 276 278 282 283 282 281 284 288 287 275 263 257 256 257 257 260 264 266 268 269 271 275 281 287 290 288 278 266 259 251 242 236 233 230 227 222 220
248 246 247 253 260 262 262 260 258 257 261 270 277 282 283 282 286 295 304 306 303 300 297 292 291 293 295 293 291 291 290 285 275 270 274 277 272 264 266 271 276 279 280 281 283 284 283 281 279 280 279 276 273 275 279 282 283 287 290 283 269 260 256 254 253 255 259 262 265 267 268 269 273 278 283 284 280 270 260 254 249 242 236 231 228 225 221
Height
3059 3057 3055 3053 3051 3050 3048 3046 3044 3043 3041 3039 3037 3036 3035 3034 3032 3031 3029 3028 3027 3027 3028 3028 3028 3029 3030 3029 3030 3031 3032 3035 3036 3037 3037 3038 3039 3039 3041 3042 3042 3043 3043 3044 3046 3046 3047 3047 3046 3047 3048 3048 3050 3052 3053 3054 3055 3056 3057 3058 3059 3061 3063 3064 3064 3064 3065 3064 3065 3066 3066 3068 3069 3069 3070 3071 3071 3072 3073 3072 3073 3074 3075 3076 3076 3076 3077
3058 3056 3054 3052 3051 3049 3047 3045 3043 3042 3040 3038 3037 3035 3034 3032 3031 3030 3028 3027 3026 3026 3027 3027 3027 3027 3027 3028 3029 3030 3031 3033 3034 3035 3036 3036 3037 3038 3039 3040 3040 3041 3041 3042 3044 3045 3045 3045 3045 3046 3047 3047 3048 3050 3052 3053 3054 3055 3056 3057 3058 3060 3062 3062 3061 3062 3063 3063 3064 3064 3065 3066 3067 3067 3067 3068 3069 3070 3071 3072 3074 3073 3072 3074 3074 3073 3075
3057 3055 3053 3052 3050 3048 3046 3044 3043 3041 3039 3038 3036 3035 3033 3032 3031 3029 3028 3027 3026 3025 3025 3025 3025 3026 3026 3027 3028 3028 3030 3031 3032 3033 3034 3034 3035 3036 3037 3037 3038 3039 3040 3041 3042 3043 3044 3044 3044 3045 3046 3045 3046 3048 3050 3052 3053 3055 3056 3057 3058 3059 3061 3061 3060 3059 3059 3060 3060 3061 3062 3064 3064 3065 3066 3066 3067 3068 3069 3071 3072 3070 3070 3072 3072 3072 3074
3057 3055 3053 3051 3049 3047 3046 3044 3042 3041 3039 3038 3036 3034 3033 3032 3031 3029 3027 3026 3025 3024 3023 3023 3023 3024 3025 3026 3027 3028 3029 3029 3031 3032 3032 3033 3034 3035 3035 3036 3037 3038 3039 3040 3040 3041 3042 3043 3044 3044 3045 3044 3045 3047 3048 3050 3051 3053 3055 3056 3057 3059 3060 3061 3061 3060 3060 3060 3059 3059 3061 3062 3063 3064 3064 3065 3065 3066 3068 3069 3069 3068 3069 3070 3070 3071 3074
3057 3054 3052 3050 3048 3047 3045 3044 3042 3041 3039 3038 3036 3034 3033 3032 3031 3029 3028 3026 3025 3024 3023 3022 3021 3022 3024 3025 3026 3027 3028 3029 3029 3031 3031 3032 3032 3033 3034 3035 3035 3036 3037 3038 3039 3039 3040 3041 3042 3043 3043 3043 3044 3046 3047 3048 3049 3051 3053 3054 3056 3057 3059 3060 3061 3061 3061 3061 3061 3060 3060 3062 3062 3063 3063 3064 3064 3065 3067 3067 3067 3067 3068 3068 3068 3070 3072
3056 3054 3052 3050 3048 3046 3045 3044 3042 3040 3039 3038 3036 3034 3033 3032 3031 3029 3028 3027 3025 3024 3023 3021 3020 3021 3023 3024 3026 3026 3027 3028 3028 3029 3030 3031 3031 3032 3032 3033 3034 3034 3035 3037 3037 3038 3039 3039 3040 3041 3042 3043 3044 3045 3046 3047 3048 3050 3051 3052 3054 3055 3057 3058 3060 3061 3061 3062 3062 3061 3060 3061 3061 3062 3063 3063 3064 3064 3066 3066 3066 3067 3067 3067 3068 3069 3071
3056 3054 3052 3050 3048 3046 3045 3043 3042 3040 3039 3037 3035 3034 3034 3032 3031 3030 3028 3027 3026 3024 3023 3022 3021 3021 3022 3024 3025 3026 3027 3027 3028 3028 3029 3030 3030 3031 3031 3032 3032 3033 3034 3035 3036 3036 3037 3038 3038 3040 3041 3042 3044 3045 3046 3047 3048 3049 3050 3051 3053 3054 3055 3056 3058 3059 3060 3061 3062 3062 3061 3061 3062 3062 3063 3063 3064 3064 3065 3065 3065 3066 3066 3067 3067 3068 3069
3056 3054 3052 3050 3048 3046 3044 3043 3041 3040 3038 3036 3035 3034 3034 3032 3031 3030 3029 3028 3027 3026 3025 3024 3023 3022 3023 3023 3024 3025 3026 3026 3027 3028 3028 3029 3029 3030 3030 3031 3031 3032 3033 3033 3034 3035 3036 3036 3037 3038 3040 3041 3042 3044 3045 3046 3047 3048 3049 3051 3052 3053 3054 3055 3056 3058 3059 3059 3060 3061 3061 3062 3062 3063 3063 3063 3063 3063 3064 3065 3065 3066 3067 3067 3067 3068 3068
3056 3054 3052 3050 3048 3046 3044 3043 3041 3040 3038 3036 3035 3034 3033 3032 3031 3030 3030 3029 3028 3027 3027 3026 3025 3025 3024 3024 3024 3025 3026 3026 3027 3027 3028 3028 3028 3029 3029 3030 3031 3031 3032 3032 3033 3034 3035 3035 3036 3037 3038 3039 3041 3042 3043 3044 3046 3047 3048 3050 3051 3052 3053 3054 3055 3057 3057 3057 3058 3059 3060 3062 3063 3062 3063 3063 3063 3063 3064 3064 3065 3066 3067 3067 3068 3068 3068
3056 3054 3052 3050 3048 3046 3045 3043 3042 3040 3038 3037 3036 3034 3033 3032 3031 3031 3030 3030 3029 3029 3029 3028 3027 3026 3026 3026 3026 3026 3026 3027 3027 3027 3027 3027 3028 3029 3029 3029 3031 3031 3031 3032 3033 3033 3034 3035 3036 3037 3038 3039 3040 3041 3042 3043 3044 3045 3047 3048 3050 3050 3051 3052 3054 3055 3055 3055 3056 3058 3059 3061 3060 3058 3060 3061 3062 3063 3063 3064 3065 3066 3067 3068 3069 3069 3069
3056 3054 3052 3051 3049 3047 3045 3044 3042 3040 3039 3038 3036 3035 3034 3033 3032 3031 3031 3031 3030 3030 3030 3029 3028 3028 3028 3027 3027 3027 3027 3027 3027 3028 3028 3028 3028 3028 3029 3029 3030 3031 3031 3032 3033 3033 3034 3035 3036 3037 3038 3039 3040 3041 3041 3042 3043 3044 3045 3046 3048 3049 3049 3051 3052 3053 3053 3053 3055 3057 3058 3057 3054 3054 3056 3059 3060 3062 3063 3064 3065 3066 3066 3067 3068 3069 3070
3056 3055 3053 3051 3050 3048 3046 3044 3043 3041 3040 3038 3037 3036 3034 3033 3033 3032 3032 3032 3031 3031 3031 3030 3030 3029 3029 3029 3028 3028 3028 3028 3028 3028 3029 3029 3028 3028 3029 3030 3030 3031 3032 3032 3033 3034 3034 3035 3036 3037 3038 3039 3040 3041 3041 3042 3042 3042 3043 3045 3046 3047 3049 3050 3051 3051 3052 3052 3054 3057 3055 3052 3051 3053 3054 3056 3058 3060 3061 3062 3063 3064 3064 3065 3066 3067 3068
3057 3055 3054 3052 3050 3049 3047 3045 3044 3042 3040 3039 3038 3036 3035 3034 3033 3033 3032 3032 3032 3031 3031 3031 3030 3030 3030 3030 3029 3029 3029 3029 3028 3028 3029 3029 3028 3028 3029 3030 3030 3031 3032 3032 3033 3034 3035 3036 3036 3037 3038 3039 3040 3041 3041 3042 3042 3042 3043 3044 3045 3046 3048 3049 3049 3050 3051 3051 3052 3052 3051 3049 3050 3052 3053 3054 3055 3057 3059 3060 3061 3061 3062 3063 3064 3065 3066
3057 3056 3054 3053 3051 3050 3048 3046 3045 3043 3041 3040 3039 3037 3036 3036 3035 3034 3033 3033 3033 3032 3032 3032 3031 3031 3031 3030 3030 3030 3030 3030 3029 3029 3029 3029 3029 3028 3028 3029 3030 3031 3031 3032 3033 3034 3035 3036 3036 3037 3038 3039 3040 3040 3040 3041 3041 3042 3043 3044 3045 3045 3047 3048 3048 3048 3049 3049 3049 3049 3049 3049 3050 3050 3051 3052 3053 3054 3056 3057 3058 3059 3060 3061 3062 3064 3065
3058 3057 3055 3054 3052 3051 3049 3047 3046 3044 3042 3041 3040 3038 3038 3037 3036 3035 3034 3034 3033 3033 3033 3032 3032 3032 3031 3031 3031 3031 3031 3031 3031 3031 3031 3030 3030 3030 3030 3030 3031 3031 3031 3032 3033 3034 3035 3036 3036 3037 3038 3038 3039 3039 3039 3039 3040 3041 3042 3043 3044 3044 3045 3046 3046 3046 3047 3048 3047 3047 3048 3048 3048 3049 3050 3051 3052 3053 3055 3056 3057 3058 3058 3060 3061 3063 3064
3059 3057 3056 3055 3054 3052 3050 3049 3047 3045 3044 3042 3041 3040 3039 3038 3037 3036 3035 3035 3034 3034 3033 3033 3033 3032 3032 3031 3031 3031 3031 3031 3031 3032 3032 3031 3031 3031 3031 3031 3031 3031 3031 3032 3033 3034 3034 3035 3036 3036 3036 3037 3037 3038 3039 3039 3040 3040 3040 3041 3042 3043 3043 3044 3045 3046 3047 3047 3046 3045 3046 3046 3047 3047 3049 3050 3051 3053 3055 3056 3056 3056 3057 3059 3060 3061 3062
3060 3058 3057 3056 3055 3053 3051 3050 3048 3047 3045 3044 3043 3042 3041 3040 3039 3037 3036 3036 3036 3035 3034 3034 3034 3033 3033 3032 3032 3031 3031 3031 3031 3031 3032 3031 3030 3030 3030 3030 3030 3031 3031 3032 3033 3034 3034 3035 3035 3036 3036 3036 3037 3037 3038 3039 3040 3039 3040 3040 3041 3042 3042 3043 3045 3045 3046 3046 3046 3045 3045 3046 3046 3047 3048 3049 3050 3052 3054 3055 3054 3054 3057 3058 3058 3060 3061
3060 3059 3058 3057 3055 3054 3053 3051 3050 3048 3047 3045 3044 3043 3042 3041 3040 3038 3037 3038 3037 3036 3035 3035 3035 3034 3034 3033 3032 3032 3032 3032 3031 3031 3031 3031 3031 3030 3030 3030 3030 3030 3031 3032 3033 3033 3034 3034 3035 3036 3036 3035 3036 3037 3038 3039 3039 3039 3040 3040 3040 3041 3041 3042 3043 3044 3044 3045 3045 3045 3045 3046 3046 3047 3047 3048 3050 3052 3053 3052 3052 3054 3056 3056 3057 3058 3059
3061 3060 3059 3058 3056 3055 3054 3052 3051 3050 3048 3047 3046 3045 3043 3042 3041 3040 3039 3039 3038 3037 3036 3036 3036 3035 3035 3034 3033 3033 3032 3032 3032 3032 3032 3031 3031 3031 3030 3030 3030 3031 3031 3032 3032 3033 3034 3034 3034 3035 3036 3036 3036 3037 3038 3038 3039 3039 3040 3040 3041 3041 3041 3041 3042 3043 3042 3043 3044 3045 3045 3045 3046 3046 3047 3048 3050 3051 3051 3051 3052 3053 3054 3055 3056 3057 3058
3062 3061 3060 3059 3057 3056 3055 3054 3052 3051 3050 3048 3047 3046 3045 3044 3042 3041 3040 3040 3039 3038 3038 3037 3037 3036 3035 3035 3034 3034 3033 3033 3032 3032 3032 3032 3031 3031 3031 3031 3031 3031 3031 3032 3033 3033 3034 3035 3035 3035 3036 3037 3036 3037 3038 3038 3038 3039 3040 3040 3041 3040 3040 3041 3042 3042 3042 3042 3043 3044 3043 3043 3045 3046 3046 3047 3049 3050 3050 3050 3051 3052 3053 3054 3055 3055 3056
3062 3061 3060 3059 3058 3057 3056 3055 3053 3052 3051 3050 3049 3047 3046 3045 3044 3043 3042 3041 3040 3039 3039 3038 3038 3037 3036 3036 3035 3034 3034 3033 3033 3032 3032 3032 3032 3031 3032 3032 3031 3031 3031 3032 3033 3034 3034 3035 3035 3036 3036 3037 3036 3037 3038 3039 3039 3039 3039 3040 3040 3040 3041 3041 3041 3041 3041 3041 3042 3042 3042 3042 3044 3045 3045 3046 3047 3048 3049 3050 3050 3051 3052 3053 3053 3054 3055
3062 3062 3061 3060 3059 3058 3057 3056 3054 3053 3052 3051 3050 3048 3047 3046 3045 3044 3043 3042 3041 3041 3040 3039 3038 3037 3037 3036 3035 3035 3034 3034 3033 3033 3033 3033 3032 3032 3032 3032 3032 3032 3032 3032 3034 3034 3035 3035 3036 3036 3037 3037 3037 3038 3038 3038 3039 3039 3039 3040 3040 3040 3040 3041 3041 3040 3041 3041 3041 3041 3041 3042 3043 3043 3044 3045 3046 3047 3048 3049 3050 3050 3051 3051 3052 3053 3054
3062 3062 3061 3060 3060 3059 3058 3056 3055 3054 3053 3052 3051 3049 3048 3047 3046 3045 3044 3043 3042 3041 3040 3039 3039 3038 3038 3037 3036 3035 3035 3034 3034 3034 3033 3033 3033 3033 3033 3033 3032 3032 3032 3033 3033 3034 3035 3035 3036 3036 3037 3037 3038 3039 3039 3039 3040 3040 3040 3039 3040 3040 3040 3040 3040 3040 3041 3041 3041 3041 3041 3041 3042 3043 3044 3045 3046 3046 3047 3048 3049 3050 3050 3051 3052 3052 3053
3062 3062 3061 3060 3060 3059 3058 3057 3056 3055 3054 3053 3051 3050 3049 3048 3047 3046 3045 3044 3043 3042 3041 3040 3040 3039 3039 3038 3037 3036 3035 3035 3035 3034 3034 3033 3033 3033 3033 3033 3033 3033 3033 3033 3033 3033 3034 3035 3035 3036 3036 3036 3037 3039 3039 3039 3039 3040 3040 3040 3040 3039 3040 3040 3040 3041 3041 3041 3041 3041 3041 3041 3042 3043 3044 3044 3045 3046 3047 3047 3048 3049 3050 3050 3051 3051 3052
3062 3061 3061 3060 3060 3059 3058 3057 3056 3055 3054 3053 3052 3051 3050 3049 3048 3047 3046 3045 3044 3043 3043 3042 3042 3041 3040 3039 3038 3037 3036 3036 3035 3034 3034 3034 3033 3033 3033 3032 3032 3032 3032 3033 3033 3034 3034 3035 3036 3037 3037 3036 3037 3038 3039 3039 3039 3039 3041 3041 3040 3040 3040 3041 3041 3041 3042 3042 3041 3041 3042 3042 3043 3043 3044 3044 3045 3046 3046 3047 3048 3048 3049 3049 3050 3050 3051
3061 3061 3060 3060 3059 3058 3058 3057 3056 3055 3055 3054 3053 3052 3050 3049 3049 3048 3047 3046 3045 3044 3044 3043 3042 3042 3040 3040 3039 3038 3037 3037 3036 3035 3035 3034 3034 3033 3033 3032 3032 3032 3032 3032 3033 3033 3034 3035 3036 3037 3037 3036 3037 3038 3038 3039 3039 3039 3040 3040 3040 3040 3041 3041 3041 3041 3041 3041 3041 3041 3042 3043 3043 3043 3044 3044 3045 3046 3046 3047 3047 3047 3048 3048 3048 3049 3049
3060 3060 3059 3059 3058 3058 3057 3056 3056 3055 3054 3053 3052 3052 3051 3050 3049 3048 3047 3046 3046 3045 3044 3044 3043 3042 3041 3040 3040 3039 3038 3037 3037 3036 3035 3035 3034 3034 3033 3033 3033 3032 3032 3032 3033 3033 3035 3035 3035 3036 3036 3036 3036 3037 3037 3038 3038 3040 3040 3040 3040 3041 3041 3041 3042 3042 3042 3041 3041 3042 3043 3044 3043 3043 3044 3044 3045 3045 3046 3046 3046 3046 3047 3047 3047 3047 3047
3059 3059 3058 3058 3057 3057 3056 3055 3055 3054 3054 3053 3052 3051 3051 3050 3049 3048 3047 3047 3046 3045 3045 3044 3043 3042 3042 3041 3041 3040 3039 3038 3038 3037 3036 3036 3035 3035 3034 3034 3033 3033 3033 3033 3033 3034 3035 3035 3035 3035 3035 3036 3036 3037 3037 3037 3038 3040 3040 3039 3039 3040 3041 3041 3042 3042 3041 3041 3041 3042 3043 3043 3043 3043 3043 3044 3044 3044 3045 3045 3045 3045 3045 3045 3045 3045 3044
3058 3057 3057 3056 3056 3055 3055 3054 3054 3053 3052 3052 3051 3050 3050 3049 3049 3048 3047 3046 3046 3045 3045 3044 3043 3043 3042 3042 3041 3040 3040 3039 3039 3038 3037 3037 3036 3035 3035 3035 3034 3034 3034 3034 3034 3034 3034 3034 3034 3034 3035 3035 3036 3037 3037 3038 3039 3039 3039 3038 3038 3038 3039 3039 3040 3041 3041 3040 3041 3041 3041 3042 3042 3042 3042 3042 3043 3043 3043 3043 3043 3043 3042 3042 3042 3042 3042
3056 3056 3055 3054 3054 3053 3053 3052 3052 3051 3051 3050 3050 3049 3049 3048 3048 3047 3046 3046 3045 3045 3044 3044 3044 3043 3042 3042 3041 3040 3040 3040 3039 3039 3038 3037 3037 3036 3036 3035 3035 3035 3035 3035 3035 3035 3035 3034 3034 3034 3034 3034 3035 3037 3038 3038 3039 3038 3037 3036 3037 3037 3037 3038 3039 3039 3040 3040 3040 3040 3040 3041 3041 3041 3041 3041 3041 3041 3041 3041 3041 3040 3040 3040 3040 3040 3040
3054 3054 3053 3052 3052 3051 3050 3050 3050 3049 3049 3048 3048 3048 3047 3047 3046 3046 3046 3045 3045 3044 3044 3044 3043 3043 3043 3042 3041 3041 3040 3040 3040 3039 3039 3038 3037 3037 3036 3036 3036 3035 3036 3036 3035 3035 3035 3035 3034 3034 3034 3034 3035 3036 3037 3038 3038 3038 3036 3036 3036 3036 3037 3037 3038 3038 3038 3039 3039 3039 3040 3040 3040 3040 3040 3040 3040 3039 3039 3039 3039 3038 3038 3038 3038 3037 3037
3052 3052 3051 3050 3050 3049 3048 3048 3048 3047 3047 3046 3046 3046 3046 3045 3045 3045 3045 3044 3044 3043 3043 3043 3043 3043 3043 3042 3042 3041 3041 3040 3040 3040 3039 3038 3038 3037 3037 3037 3036 3036 3036 3036 3036 3035 3035 3035 3035 3034 3034 3034 3034 3036 3037 3037 3037 3037 3036 3036 3036 3036 3036 3036 3037 3037 3038 3038 3038 3039 3039 3039 3039 3039 3039 3038 3038 3038 3037 3037 3037 3037 3036 3036 3035 3035 3035
3050 3049 3049 3048 3047 3047 3046 3045 3045 3045 3045 3044 3044 3044 3044 3044 3044 3044 3043 3043 3043 3043 3042 3042 3042 3043 3043 3042 3042 3041 3041 3041 3040 3040 3039 3039 3038 3038 3037 3037 3037 3036 3036 3036 3036 3036 3035 3035 3035 3035 3035 3034 3034 3035 3037 3037 3036 3036 3035 3036 3035 3035 3035 3036 3036 3036 3037 3037 3037 3038 3038 3037 3037 3037 3037 3037 3037 3036 3036 3035 3035 3035 3034 3034 3033 3033 3032
3048 3047 3046 3046 3045 3044 3043 3043 3043 3043 3043 3043 3043 3042 3043 3043 3042 3042 3042 3042 3042 3042 3042 3042 3042 3042 3042 3042 3042 3042 3041 3041 3041 3041 3040 3039 3038 3038 3038 3037 3037 3036 3036 3036 3036 3036 3036 3035 3035 3036 3035 3034 3034 3035 3036 3036 3035 3035 3034 3035 3035 3034 3035 3035 3035 3036 3036 3036 3036 3036 3036 3036 3036 3036 3036 3035 3035 3034 3034 3034 3033 3033 3032 3032 3031 3031 3030
3045 3045 3044 3043 3043 3042 3042 3041 3041 3041 3041 3041 3041 3041 3041 3041 3041 3041 3041 3041 3041 3041 3041 3041 3042 3042 3043 3043 3043 3042 3042 3041 3041 3041 3040 3039 3039 3038 3038 3038 3037 3037 3037 3036 3036 3036 3036 3035 3035 3036 3035 3034 3034 3035 3035 3036 3035 3034 3034 3034 3034 3034 3034 3034 3035 3035 3035 3035 3035 3035 3035 3035 3035 3034 3034 3034 3033 3033 3032 3032 3032 3031 3031 3030 3029 3028 3028
3044 3043 3042 3042 3041 3041 3040 3040 3040 3040 3040 3040 3040 3040 3040 3040 3040 3040 3040 3040 3040 3040 3040 3041 3041 3042 3043 3044 3043 3042 3042 3042 3041 3041 3040 3040 3039 3039 3038 3038 3038 3037 3036 3036 3036 3036 3035 3034 3035 3035 3035 3034 3034 3035 3035 3034 3034 3034 3034 3034 3033 3033 3034 3034 3034 3034 3034 3034 3034 3034 3034 3034 3033 3033 3032 3032 3031 3031 3031 3030 3030 3030 3029 3028 3027 3026 3025
3042 3041 3041 3040 3040 3040 3039 3039 3039 3039 3039 3039 3039 3039 3039 3039 3039 3039 3039 3039 3039 3039 3040 3040 3041 3042 3042 3043 3042 3042 3042 3042 3042 3041 3041 3040 3039 3039 3038 3038 3038 3037 3036 3036 3036 3035 3034 3033 3034 3034 3034 3034 3034 3033 3032 3031 3032 3033 3033 3033 3032 3032 3033 3033 3033 3033 3033 3033 3033 3033 3033 3032 3032 3031 3031 3030 3029 3029 3029 3029 3028 3028 3027 3026 3025 3024 3024
3040 3040 3040 3039 3039 3039 3038 3038 3038 3038 3038 3038 3038 3038 3038 3038 3038 3038 3038 3038 3039 3039 3039 3040 3041 3041 3041 3042 3042 3042 3042 3042 3042 3042 3041 3040 3039 3039 3038 3038 3037 3037 3036 3036 3035 3033 3033 3033 3032 3032 3032 3032 3031 3030 3030 3030 3030 3031 3031 3031 3031 3031 3032 3032 3032 3032 3032 3032 3032 3032 3031 3031 3030 3029 3029 3028 3028 3028 3027 3027 3027 3026 3025 3025 3024 3023 3022
3039 3039 3039 3039 3038 3038 3038 3038 3037 3037 3037 3037 3037 3037 3037 3038 3038 3038 3038 3038 3039 3039 3040 3040 3041 3041 3041 3042 3042 3042 3041 3042 3042 3042 3041 3040 3039 3039 3038 3037 3037 3036 3036 3035 3034 3033 3033 3033 3032 3031 3032 3031 3030 3029 3028 3029 3029 3029 3029 3030 3030 3030 3031 3031 3030 3031 3031 3031 3031 3031 3030 3030 3029 3028 3027 3027 3026 3026 3026 3026 3025 3025 3024 3024 3023 3022 3022
3039 3039 3038 3038 3038 3038 3037 3037 3037 3037 3037 3037 3037 3037 3037 3037 3038 3038 3038 3039 3039 3039 3040 3040 3041 3041 3041 3042 3042 3041 3041 3041 3041 3041 3040 3039 3038 3038 3037 3037 3036 3035 3035 3035 3034 3032 3032 3032 3031 3031 3031 3031 3029 3027 3027 3027 3027 3027 3028 3028 3028 3029 3029 3029 3029 3029 3029 3030 3030 3029 3029 3028 3028 3027 3026 3026 3025 3025 3025 3025 3024 3024 3024 3023 3023 3022 3021
3038 3038 3038 3038 3037 3037 3037 3037 3037 3036 3036 3036 3037 3037 3037 3037 3037 3038 3039 3039 3040 3040 3040 3040 3041 3041 3041 3041 3041 3041 3040 3039 3039 3039 3039 3038 3037 3037 3037 3036 3035 3034 3034 3034 3032 3031 3031 3031 3030 3030 3030 3029 3027 3026 3025 3025 3025 3025 3026 3026 3027 3027 3027 3027 3027 3028 3028 3028 3028 3028 3027 3027 3026 3026 3025 3025 3024 3024 3024 3024 3024 3023 3023 3023 3022 3022 3021
3038 3038 3037 3037 3037 3037 3037 3036 3036 3036 3036 3036 3037 3037 3037 3037 3038 3038 3039 3039 3039 3039 3040 3040 3040 3040 3040 3040 3040 3039 3039 3038 3038 3037 3037 3037 3036 3036 3035 3035 3034 3034 3033 3032 3031 3030 3030 3030 3029 3029 3029 3027 3025 3024 3024 3024 3024 3024 3024 3025 3025 3026 3026 3026 3027 3027 3027 3027 3027 3026 3026 3025 3024 3024 3024 3024 3023 3023 3023 3023 3023 3023 3023 3022 3022 3021 3021
3037 3037 3037 3037 3037 3036 3036 3036 3036 3036 3036 3037 3037 3037 3037 3037 3038 3038 3038 3039 3039 3039 3039 3039 3039 3039 3039 3039 3038 3038 3037 3037 3036 3036 3036 3035 3035 3034 3034 3033 3033 3032 3031 3030 3030 3030 3029 3029 3028 3028 3028 3026 3024 3023 3023 3022 3022 3022 3023 3023 3024 3024 3025 3025 3025 3026 3026 3026 3025 3025 3024 3023 3023 3023 3023 3023 3022 3022 3022 3022 3022 3022 3022 3022 3022 3021 3021
3036 3036 3037 3036 3036 3036 3036 3036 3036 3036 3037 3037 3037 3037 3037 3038 3038 3038 3039 3039 3038 3039 3039 3038 3038 3039 3038 3037 3037 3036 3036 3035 3035 3034 3034 3034 3033 3033 3032 3032 3031 3030 3029 3029 3029 3029 3028 3027 3027 3026 3025 3024 3022 3022 3021 3021 3021 3021 3021 3021 3022 3023 3023 3024 3024 3024 3024 3024 3024 3023 3023 3022 3022 3022 3022 3022 3022 3022 3022 3022 3022 3022 3021 3021 3021 3021 3020
3036 3036 3036 3036 3036 3036 3036 3036 3036 3036 3037 3037 3037 3037 3038 3038 3038 3038 3038 3038 3038 3038 3038 3037 3037 3037 3037 3036 3035 3035 3035 3034 3034 3033 3033 3032 3032 3032 3031 3030 3029 3028 3028 3028 3027 3027 3026 3026 3025 3024 3023 3022 3021 3021 3020 3020 3019 3019 3020 3020 3020 3021 3022 3022 3022 3022 3023 3023 3022 3022 3022 3021 3021 3021 3021 3021 3021 3021 3021 3021 3021 3021 3021 3021 3021 3021 3020
3035 3035 3035 3036 3036 3036 3036 3036 3036 3036 3036 3037 3037 3037 3037 3037 3037 3037 3037 3037 3037 3037 3037 3036 3036 3036 3035 3034 3034 3033 3033 3033 3032 3032 3031 3031 3031 3030 3029 3028 3027 3027 3026 3026 3025 3025 3025 3025 3024 3023 3022 3021 3020 3019 3019 3018 3018 3018 3018 3018 3019 3019 3020 3020 3020 3021 3021 3021 3021 3021 3021 3020 3020 3020 3020 3020 3020 3020 3020 3020 3020 3020 3020 3020 3020 3020 3020
3034 3034 3035 3035 3035 3035 3035 3035 3036 3036 3036 3036 3036 3036 3036 3036 3036 3036 3036 3037 3036 3036 3036 3035 3034 3034 3033 3033 3033 3032 3032 3031 3031 3030 3029 3029 3029 3028 3026 3026 3026 3025 3024 3024 3024 3023 3023 3023 3022 3021 3020 3019 3019 3018 3018 3017 3017 3017 3017 3017 3017 3018 3018 3018 3019 3019 3019 3019 3019 3019 3019 3019 3019 3019 3018 3018 3018 3018 3018 3019 3019 3019 3019 3019 3019 3019 3019
3033 3033 3034 3034 3034 3034 3034 3035 3035 3035 3035 3035 3036 3035 3035 3035 3035 3035 3035 3035 3035 3034 3034 3033 3033 3033 3032 3031 3031 3031 3030 3030 3029 3028 3027 3027 3027 3026 3025 3024 3024 3023 3023 3022 3022 3022 3022 3021 3019 3018 3018 3017 3017 3017 3017 3016 3016 3016 3015 3016 3016 3016 3016 3017 3017 3017 3017 3018 3018 3018 3017 3017 3017 3017 3017 3017 3017 3017 3017 3017 3017 3018 3018 3018 3018 3019 3019
3032 3032 3033 3033 3033 3033 3033 3034 3034 3034 3034 3034 3035 3034 3034 3034 3034 3033 3033 3033 3033 3032 3032 3031 3031 3031 3030 3029 3029 3029 3029 3028 3027 3027 3026 3025 3025 3024 3023 3022 3022 3021 3020 3020 3020 3020 3019 3018 3017 3016 3016 3016 3016 3015 3015 3015 3015 3014 3014 3014 3015 3015 3015 3015 3015 3015 3015 3015 3016 3016 3016 3016 3015 3015 3015 3015 3015 3016 3016 3016 3016 3016 3017 3017 3017 3017 3018
3030 3031 3031 3031 3032 3032 3032 3032 3033 3033 3033 3033 3033 3033 3033 3033 3032 3032 3031 3031 3031 3030 3030 3029 3029 3029 3028 3028 3027 3027 3027 3026 3026 3025 3024 3023 3023 3022 3021 3020 3020 3019 3019 3018 3017 3017 3017 3016 3014 3014 3013 3013 3013 3014 3014 3013 3013 3013 3012 3012 3012 3013 3013 3013 3013 3013 3013 3013 3013 3014 3014 3014 3014 3013 3013 3013 3014 3014 3014 3015 3015 3015 3015 3015 3016 3016 3017
3029 3029 3030 3030 3030 3030 3030 3031 3031 3032 3032 3031 3031 3031 3031 3031 3031 3030 3030 3029 3029 3028 3028 3028 3028 3027 3027 3026 3025 3025 3024 3024 3023 3022 3022 3021 3021 3020 3018 3018 3018 3017 3017 3016 3015 3014 3014 3013 3013 3012 3011 3011 3011 3011 3011 3011 3011 3011 3011 3010 3010 3010 3011 3011 3011 3011 3011 3011 3011 3011 3012 3012 3012 3011 3012 3012 3012 3012 3012 3013 3013 3013 3013 3014 3014 3015 3015
3027 3027 3028 3028 3028 3028 3028 3029 3029 3029 3029 3029 3028 3029 3029 3029 3029 3028 3028 3027 3027 3027 3027 3027 3026 3026 3025 3024 3023 3023 3022 3021 3020 3019 3019 3018 3018 3017 3016 3016 3016 3015 3014 3013 3012 3012 3011 3011 3010 3009 3009 3009 3009 3009 3008 3008 3009 3009 3009 3008 3008 3008 3008 3008 3008 3009 3009 3009 3009 3009 3010 3010 3010 3010 3010 3010 3010 3010 3010 3011 3011 3011 3012 3012 3012 3013 3013